Torna al catalogo

NADEZHDA 3

AttivoNavigazionePO
NORAD 21152·PAYLOAD·🇷🇺 Russia

Lanciato Mar 12, 1991 da Plesetsk Cosmodrome

Loading…

Prossimi Passaggi (prossime 24 ore)

TLE

AggiornatoSource: Space-Track

Epoca: Sep 14, 2026, 08:43 UTC

1 21152U 91019A   26257.36326616  .00000024  00000-0  94407-5 0  9991
2 21152  82.9238 237.6135 0041390 186.5636 334.5785 13.74508946780405

Traccia NADEZHDA 3 in tempo reale con AllMySat

Download on the App Store